Location: Newark
(47.5833°N, 8.1500°E)
Time: 09:21:10
(UTC+00:00)

Altair - Pass Details

Date: 29 October 2020
Orbit: 1502 x 1682 km, 47.2° (Epoch: 03 December)

Event Time Altitude Azimuth Distance (km) Brightness Sun altitude
Rises 05:28:18 0° 245° (WSW) 4,651 9.5 -7.2°
Reaches altitude 10° 05:31:18 10° 244° (WSW) 3,684 9.0 -6.7°
Maximum altitude 05:40:35 76° 161° (SSE) 1,602 7.8 -5.1°
Drops below altitude 10° 05:50:14 10° 78° (ENE) 3,824 10.8 -3.6°
Sets 05:53:24 0° 77° (ENE) 4,835 11.3 -3.1°
